Lexington Weather

Lexington, Massachusetts, USA

53°F
10/17/2021 8:55pm 
  • Lexington Conditions: Clear
  • Temperature: 52.9°F / 11.6°CColder 1.1°F than last hour.
  • Dew Point: 47.5°FDecreased 0.5°Fsince last hour.
  • Relative Humidity: 82%Increased 2.0% since last hour.
  • Wind: Wind from SW SW 1 mph, 10-min avg: Calm, gust: 3 mph
  • Barometer: 29.67 inRising 0.02  inHg/hr Rising Slowly
  • Visibility: 10 miles
  • Rain Today: 0.35 in
  •   

Regional Weather Roundup
for Boston / Norton, MA

        
000
ASUS41 KBOX 170004
RWRBOX

REGIONAL WEATHER ROUNDUP
NATIONAL WEATHER SERVICE BOSTON/NORTON MA
800 PM EDT SAT OCT 16 2021

NOTE:  "FAIR" INDICATES FEW OR NO CLOUDS BELOW 12,000 FEET WITH NO 
SIGNIFICANT WEATHER AND/OR OBSTRUCTIONS TO VISIBILITY.

MAZALL-170100-
EASTERN MASSACHUSETTS
  
CITY           SKY/WX    TMP DP  RH WIND       PRES   REMARKS
BOSTON         CLOUDY    72  65  78 S16       29.65F                  
6HR MIN TEMP:  70; 6HR MAX TEMP:  74;                                

BEVERLY        CLOUDY    72  65  78 S16G22    29.64F                  
LAWRENCE       MOCLDY    72  64  76 S9G16     29.65F                  
BEDFORD        MOCLDY    71  65  81 S10       29.63F                  
BLUE HILL      NOT AVBL                                               
NORWOOD        CLOUDY    73  66  78 S12G21    29.65F                  
MARSHFIELD     CLOUDY    72  66  83 S13G22    29.68F                  
PLYMOUTH       CLOUDY    71  65  81 S10G23    29.69F                  
TAUNTON        CLOUDY    72  66  81 S8G22     29.68S                  
NEW BEDFORD    CLOUDY    71  67  87 S16G23    29.69F                  
$$

MAZALL-170100-
CAPE COD AND THE ISLANDS
  
CITY           SKY/WX    TMP DP  RH WIND       PRES   REMARKS
FALMOUTH       NOT AVBL                                               
HYANNIS        CLOUDY    69  66  90 S10G22    29.72S                  
CHATHAM        MOCLDY    66  63  90 S8G18     29.75S                  
PROVINCETOWN   MOCLDY    68  65  90 S10G21    29.71F                  
NANTUCKET      MOCLDY    69  65  86 S15       29.74F                  
MARTHAS VNYRD  CLOUDY    70  67  90 S15       29.72F                  
$$
 
MAZALL-170100-
CENTRAL AND WESTERN MASSACHUSETTS
  
CITY           SKY/WX    TMP DP  RH WIND       PRES   REMARKS
WORCESTER      MOCLDY    67  62  84 S17G31    29.66S                  
6HR MIN TEMP:  67; 6HR MAX TEMP:  72;                                

FITCHBURG      PTCLDY    70  60  70 S14G24    29.63F                  
ORANGE         LGT RAIN  68  61  78 SW14      29.64R                  
SPRINGFIELD    LGT RAIN  68  63  83 SW21G28   29.63R                  
WESTFIELD      RAIN      63  59  87 W5        29.65R                  
NORTH ADAMS    LGT RAIN  60  56  86 W8        29.68R                  
PITTSFIELD     RAIN      58  56  93 W21G35    29.70R FOG              
$$
 
RIZALL-170100-
RHODE ISLAND
  
CITY           SKY/WX    TMP DP  RH WIND       PRES   REMARKS
PROVIDENCE     MOCLDY    72  67  84 S16       29.68S                  
6HR MIN TEMP:  71; 6HR MAX TEMP:  75; 6HR PCP: TRACE;                

NEWPORT        NOT AVBL                                               
BLOCK ISLAND   CLOUDY    69  65  86 S16       29.69F                  
SMITHFIELD     CLOUDY    70  66  87 S8        29.67F                  
WESTERLY       CLEAR     70  67  90 S16G25    29.67F                  
$$
 
CTZALL-170100-
CONNECTICUT
  
CITY           SKY/WX    TMP DP  RH WIND       PRES   REMARKS
BRADLEY INTL   RAIN      68  66  93 W13       29.64R                  
6HR MIN TEMP:  68; 6HR MAX TEMP:  76; 6HR PCP:  0.02;                

HARTFORD       LGT RAIN  70  62  76 W16       29.64R                  
BRIDGEPORT     CLOUDY    68  57  68 NW12      29.66R                  
DANBURY        CLOUDY    63  59  87 W3        29.70R                  
GROTON         PTCLDY    69  67  93 S21       29.65F                  
NEW HAVEN      LGT RAIN  70  63  78 VRB7G17   29.66R                  
CHESTER        CLOUDY    70  68  94 N10G20    29.67R                  
MERIDEN        LGT RAIN  65  58  78 NW8       29.66R                  
WILLIMANTIC    CLOUDY    70  63  78 SW14      29.65F                  
OXFORD         CLOUDY    61  59  93 NW5       29.69R                  
$$

MEZ002-015-021-024-NHZ003-005-008-011-012-014-VTZ005-008-170100-
NORTHERN NEW ENGLAND
  
CITY           SKY/WX    TMP DP  RH WIND       PRES   REMARKS
PORTLAND ME    MOCLDY    65  62  90 S14G28    29.65F                  
6HR MIN TEMP:  64; 6HR MAX TEMP:  68;                                

BANGOR ME      CLOUDY    63  61  93 S18G25    29.70F                  
CONCORD NH     MOCLDY    69  59  70 S9G16     29.61F                  
MANCHESTER NH  MOCLDY    71  60  68 S14       29.60F                  
NASHUA NH      PTCLDY    69  65  86 CALM      29.63F                  
PORTSMOUTH NH  MOCLDY    70  60  70 S15       29.64F                  
JAFFREY NH     CLOUDY    68  59  73 S12G20    29.63F                  
KEENE NH       RAIN      68  61  78 SW12      29.63R                  
BURLINGTON VT  RAIN      62  60  93 NW7       29.62R FOG              
MT. WASHINGTON LGT RAIN  48  48 100 S28G39      N/A  VSB 0            
$$

NYZ052-076-170100-
EASTERN NEW YORK
  
CITY           SKY/WX    TMP DP  RH WIND       PRES   REMARKS
ALBANY         LGT RAIN  59  55  87 W10       29.72R                  
6HR MIN TEMP:  59; 6HR MAX TEMP:  77; 6HR PCP:  1.06;                

NEW YORK CITY  LGT RAIN  68  58  70 W7        29.68R                  
6HR MIN TEMP:  68; 6HR MAX TEMP:  77; 6HR PCP: TRACE;                

$$
 
ANZALL-170100-
MARINE OBSERVATIONS
  
STATION/POSITION TIME  TEMP    WIND        PRES    VSBY  WAVE
                       AIR SEA DIR/SP/G                  HT/PER
                 (UTC) (F)     (DEG/KT/KT) (MB)    (MI)  (FT/S)
BOSTON BUOY      2340      63  180/ 17/ 21 1004.9F
BUZZARDS BAY     2300          170/ 22/ 25 1006.2F
NANTUCKET SOUND  2350   69     170/ 17/ 21   N/A           2/ 4
MASS BAY-STELLWA 2304   67     190/ 17/ 23 1003.6S  1 7/8  5/ 5
ISLE OF SHOALS   2300   66     160/ 23/ 25 1003.5R
S OF BLOCK IS    2326      66                N/A           6/ 6
$$

......................KEY.........................
  SKY/WX - SKY CONDITION/PRESENT WEATHER
  TMP    - TEMPERATURE IN FAHRENHEIT
  DWPT   - DEWPOINT IN FAHRENHEIT
  RH     - RELATIVE HUMIDITY IN PERCENT
  WIND   - DIRECTION AND SPEED IN MPH
  PRES   - MEAN SEA LEVEL PRESSURE IN INCHES OF HG
  WCI    - WIND CHILL INDEX
  VSB    - VISIBILITY IN MILES
  HX     - HEAT INDEX
  TC     - TEMPERATURE IN CELSIUS
  VRB    - VARIABLE WIND DIRECTION
  N/A    - NOT AVAILABLE
  
      

Other recent Regional Weather Roundups

Sun Oct 17, 8:04pm

Sun Oct 17, 7:04pm

Sun Oct 17, 6:04pm

Sun Oct 17, 5:04pm

Sun Oct 17, 4:04pm

Sun Oct 17, 3:04pm

Sun Oct 17, 2:04pm

Sun Oct 17, 1:04pm

Sun Oct 17, 12:04pm

Sun Oct 17, 11:04am

Sun Oct 17, 10:04am

Sun Oct 17, 9:04am

Sun Oct 17, 8:04am

Sun Oct 17, 7:04am

Sun Oct 17, 6:04am

Sun Oct 17, 5:04am

Sun Oct 17, 4:04am

Sun Oct 17, 3:04am

Sun Oct 17, 2:04am

Sun Oct 17, 1:04am

Sun Oct 17, 12:04am

Sat Oct 16, 11:04pm

Sat Oct 16, 10:04pm

Sat Oct 16, 9:04pm

Sat Oct 16, 7:04pm

Sat Oct 16, 6:04pm

Sat Oct 16, 5:04pm

Sat Oct 16, 4:04pm

Sat Oct 16, 3:04pm

Sat Oct 16, 2:04pm

Sat Oct 16, 1:04pm

Sat Oct 16, 12:04pm

Sat Oct 16, 11:04am

Sat Oct 16, 10:04am

Sat Oct 16, 9:04am

Sat Oct 16, 8:04am

Sat Oct 16, 7:04am

Sat Oct 16, 6:04am

Sat Oct 16, 5:04am

Sat Oct 16, 4:04am

Sat Oct 16, 3:04am

Sat Oct 16, 2:04am

Sat Oct 16, 1:04am

Sat Oct 16, 12:04am

Fri Oct 15, 11:04pm

Fri Oct 15, 10:04pm

Fri Oct 15, 9:04pm

Fri Oct 15, 8:04pm

Fri Oct 15, 7:04pm

Fri Oct 15, 6:04pm

Fri Oct 15, 5:04pm

Fri Oct 15, 4:04pm

Fri Oct 15, 3:04pm

Fri Oct 15, 2:05pm

Fri Oct 15, 1:05pm

Fri Oct 15, 12:04pm

Fri Oct 15, 11:05am

Fri Oct 15, 10:04am

Fri Oct 15, 9:04am

Fri Oct 15, 8:04am

Fri Oct 15, 7:04am

Fri Oct 15, 6:04am

Fri Oct 15, 5:04am

Fri Oct 15, 4:04am

Fri Oct 15, 3:05am

Fri Oct 15, 2:04am

Fri Oct 15, 1:04am

Fri Oct 15, 12:04am

Thu Oct 14, 11:04pm

Thu Oct 14, 10:04pm

Thu Oct 14, 9:04pm

Thu Oct 14, 8:04pm

Thu Oct 14, 7:04pm

Thu Oct 14, 6:04pm

Thu Oct 14, 5:04pm

Thu Oct 14, 4:04pm

Thu Oct 14, 3:04pm

Thu Oct 14, 2:04pm

Thu Oct 14, 1:04pm

Thu Oct 14, 12:04pm

Thu Oct 14, 11:04am

Thu Oct 14, 10:04am

Thu Oct 14, 9:04am

Thu Oct 14, 8:04am

Thu Oct 14, 7:04am

Thu Oct 14, 6:04am

Thu Oct 14, 5:04am

Thu Oct 14, 4:04am

Thu Oct 14, 3:04am

Thu Oct 14, 2:04am

Thu Oct 14, 1:04am

Thu Oct 14, 12:04am

Wed Oct 13, 11:04pm

Wed Oct 13, 10:04pm

Wed Oct 13, 9:04pm

Wed Oct 13, 8:04pm

Wed Oct 13, 7:04pm

Wed Oct 13, 6:04pm

Wed Oct 13, 5:04pm

Wed Oct 13, 4:04pm

Wed Oct 13, 3:04pm

Wed Oct 13, 2:04pm

Wed Oct 13, 1:04pm

Wed Oct 13, 12:04pm

Wed Oct 13, 11:04am

Wed Oct 13, 10:04am

Wed Oct 13, 9:04am

Wed Oct 13, 8:04am

Wed Oct 13, 7:04am

Wed Oct 13, 6:04am

Wed Oct 13, 5:04am

Wed Oct 13, 4:04am

Wed Oct 13, 3:04am

Wed Oct 13, 2:04am

Wed Oct 13, 1:04am

Wed Oct 13, 12:04am

Tue Oct 12, 11:04pm

Tue Oct 12, 10:04pm

Tue Oct 12, 9:04pm

Tue Oct 12, 8:04pm

Tue Oct 12, 7:04pm

Tue Oct 12, 6:04pm

Tue Oct 12, 5:04pm

Tue Oct 12, 4:04pm

Tue Oct 12, 3:04pm

Tue Oct 12, 2:04pm

Tue Oct 12, 1:04pm

Tue Oct 12, 12:04pm

Tue Oct 12, 11:05am

Tue Oct 12, 10:04am

Tue Oct 12, 9:04am

Tue Oct 12, 8:04am

Tue Oct 12, 7:04am

Tue Oct 12, 6:04am

Tue Oct 12, 5:04am

Tue Oct 12, 4:04am

Tue Oct 12, 3:04am

Tue Oct 12, 2:04am

Tue Oct 12, 1:04am

Tue Oct 12, 12:04am

Mon Oct 11, 11:04pm

Mon Oct 11, 10:04pm

Mon Oct 11, 9:04pm

Mon Oct 11, 8:04pm

Mon Oct 11, 7:04pm

Mon Oct 11, 6:04pm

Mon Oct 11, 5:04pm

Mon Oct 11, 4:04pm

Mon Oct 11, 3:04pm

Mon Oct 11, 2:04pm

Mon Oct 11, 1:04pm

Mon Oct 11, 12:04pm

Mon Oct 11, 11:04am

Mon Oct 11, 10:04am

Mon Oct 11, 9:04am

Mon Oct 11, 8:04am

Mon Oct 11, 7:04am

Mon Oct 11, 6:04am

Mon Oct 11, 5:04am

Mon Oct 11, 4:04am

Mon Oct 11, 3:04am

Mon Oct 11, 2:04am

Mon Oct 11, 1:04am

Mon Oct 11, 12:05am

Sun Oct 10, 11:04pm

Sun Oct 10, 10:04pm

Sun Oct 10, 9:04pm

Meta data:

ID: c2bdd59d-f89b-49cb-a50c-833ca75eb073
Link: https://api.weather.gov/products/c2bdd59d-f89b-49cb-a50c-833ca75eb073